Ellensburg, WA
on Friday, December 21, 2012

Friday
Previous Day Next Day
Daily Summary
 ActualAverage (KYKM)Record (KYKM)
Temperature
Mean Temperature °F 28°F  
Max Temperature 36°F 34°F 57°F (1974)
Min Temperature 24°F 21°F -9°F (1990)
Degree Days
Heating Degree Days 35 38  
Month to date heating degree days 755  
Since 1 July heating degree days 2288  
Cooling Degree Days 0 0  
Month to date cooling degree days 0  
Year to date cooling degree days 472  
Moisture
Dew Point 27°F   
Average Humidity 84    
Maximum Humidity 93    
Minimum Humidity 79    
Precipitation
Precipitation 0.07 in 0.05 in 1.29 in (1964)
Month to date precipitation 1.04  
Year to date precipitation 7.76  
Snow
Snow 0.00 in 0.30 in 13.60 in (1964)
Month to date snowfall 6.3  
Year to date snowfall 18.5  
Since 1 July snowfall 9.9  
Snow Depth in   
Wind
Wind Speed 3 mph   
Max Wind Speed 7 mph   
Max Gust Speed mph   
Visibility 2 miles   
Events Fog , Snow   

Key: T is trace of precipitation, MM is missing value
Source: NWS Daily Summary
Time(PST)TemperatureDew PointHumidity Pressure Visibility Wind DirectionWind SpeedGust SpeedPrecipitationEvents Conditions
12:53 AM 28.9°F 25.0°F 85% 29.85 in 10.0 miles Calm Calm - N/A   Mostly Cloudy
1:53 AM 28.9°F 25.0°F 85% 29.85 in 10.0 miles NNE 4.6 mph - N/A   Scattered Clouds
2:53 AM 26.1°F 21.0°F 81% 29.87 in 6.0 miles Calm Calm - N/A   Haze
3:53 AM 24.1°F 19.9°F 84% 29.87 in 8.0 miles East 4.6 mph - N/A   Clear
4:11 AM 24.8°F 19.4°F 80% 29.82 in 2.0 miles ENE 6.9 mph - N/A   Scattered Clouds
4:13 AM 24.8°F 19.4°F 80% 29.82 in 1.0 miles ENE 6.9 mph - N/A   Mist
4:20 AM 24.8°F 19.4°F 80% 29.82 in 0.2 miles ENE 6.9 mph - N/A Fog Light Freezing Fog
4:38 AM 24.8°F 21.2°F 86% 29.83 in 1.2 miles ENE 4.6 mph - N/A   Mostly Cloudy
4:41 AM 24.8°F 21.2°F 86% 29.83 in 4.0 miles East 4.6 mph - N/A   Mostly Cloudy
4:51 AM 24.8°F 19.4°F 80% 29.83 in 1.5 miles ENE 4.6 mph - N/A   Mostly Cloudy
4:53 AM 24.1°F 19.9°F 84% 29.88 in 0.8 miles ENE 5.8 mph - N/A   Mist
5:21 AM 26.6°F 23.0°F 86% 29.82 in 1.0 miles NE 4.6 mph - N/A   Mist
5:29 AM 26.6°F 24.8°F 93% 29.82 in 2.0 miles ENE 4.6 mph - N/A   Overcast
5:39 AM 26.6°F 23.0°F 86% 29.82 in 4.0 miles ENE 3.5 mph - N/A   Mostly Cloudy
5:53 AM 26.1°F 21.9°F 84% 29.87 in 6.0 miles Calm Calm - N/A   Overcast
6:17 AM 26.6°F 21.2°F 80% 29.83 in 1.8 miles West 3.5 mph - N/A   Haze
6:22 AM 24.8°F 21.2°F 86% 29.83 in 0.8 miles West 4.6 mph - N/A   Mostly Cloudy
6:44 AM 26.6°F 21.2°F 80% 29.83 in 1.5 miles NW 3.5 mph - N/A   Overcast
6:47 AM 26.6°F 21.2°F 80% 29.83 in 3.0 miles NW 3.5 mph - N/A   Overcast
6:53 AM 26.1°F 21.9°F 84% 29.88 in 4.0 miles Calm Calm - N/A   Overcast
7:53 AM 28.9°F 24.1°F 82% 29.88 in 7.0 miles Calm Calm - N/A   Overcast
8:53 AM 28.0°F 24.1°F 85% 29.88 in 2.5 miles WSW 3.5 mph - 0.00 in Snow Light Snow
9:13 AM 28.4°F 24.8°F 86% 29.83 in 1.8 miles West 4.6 mph - 0.00 in   Overcast
9:26 AM 28.4°F 24.8°F 86% 29.84 in 2.0 miles Calm Calm - 0.00 in   Overcast
9:36 AM 28.4°F 24.8°F 86% 29.83 in 5.0 miles Calm Calm - 0.00 in   Overcast
9:51 AM 30.2°F 26.6°F 86% 29.84 in 2.0 miles NNW 4.6 mph - 0.00 in Snow Light Snow
9:53 AM 30.0°F 26.1°F 85% 29.89 in 2.0 miles NNW 4.6 mph - 0.00 in Snow Light Snow
10:04 AM 30.2°F 26.6°F 86% 29.84 in 1.8 miles North 3.5 mph - 0.00 in Snow Light Snow
10:11 AM 30.2°F 26.6°F 86% 29.84 in 1.8 miles North 5.8 mph - 0.00 in Snow Light Snow
10:22 AM 32.0°F 26.6°F 80% 29.83 in 2.0 miles North 4.6 mph - 0.00 in Snow Light Snow
10:27 AM 32.0°F 26.6°F 80% 29.83 in 3.0 miles North 3.5 mph - 0.00 in Snow Light Snow
10:53 AM 34.0°F 28.9°F 82% 29.87 in 2.5 miles Calm Calm - 0.00 in Snow Light Snow
11:06 AM 33.8°F 28.4°F 81% 29.82 in 1.8 miles Calm Calm - 0.01 in Snow Light Snow
11:19 AM 33.8°F 28.4°F 81% 29.81 in 2.0 miles Calm Calm - 0.01 in Snow Light Snow
11:30 AM 33.8°F 28.4°F 81% 29.81 in 1.2 miles Calm Calm - 0.01 in Snow Light Snow
11:41 AM 33.8°F 28.4°F 81% 29.81 in 1.0 miles Calm Calm - 0.01 in Snow Light Snow
11:53 AM 34.0°F 28.9°F 82% 29.85 in 1.5 miles Calm Calm - 0.01 in Snow Light Snow
12:10 PM 33.8°F 28.4°F 81% 29.81 in 1.0 miles WNW 4.6 mph - 0.00 in Snow Light Snow
12:25 PM 33.8°F 28.4°F 81% 29.81 in 0.8 miles NW 4.6 mph - 0.01 in Snow Light Snow
12:53 PM 34.0°F 30.0°F 85% 29.84 in 0.5 miles NNW 3.5 mph - 0.01 in Fog , Snow Snow
1:23 PM 35.6°F 30.2°F 81% 29.77 in 1.0 miles NE 4.6 mph - 0.03 in Snow Light Snow
1:33 PM 35.6°F 30.2°F 81% 29.77 in 1.8 miles NNE 3.5 mph - 0.04 in Snow Light Snow
1:40 PM 35.6°F 30.2°F 81% 29.78 in 2.5 miles Calm Calm - 0.04 in Snow Light Snow
1:49 PM 35.6°F 30.2°F 81% 29.78 in 4.0 miles WNW 3.5 mph - 0.05 in Snow Light Snow
1:53 PM 35.1°F 30.0°F 82% 29.83 in 5.0 miles Calm Calm - 0.05 in Snow Light Snow
2:20 PM 35.6°F 30.2°F 81% 29.77 in 8.0 miles Calm Calm - 0.00 in   Overcast
2:53 PM 36.0°F 30.0°F 79% 29.83 in 10.0 miles Calm Calm - 0.00 in   Overcast
3:44 PM 35.6°F 30.2°F 81% 29.77 in 7.0 miles SSW 3.5 mph - N/A   Overcast
3:53 PM 35.1°F 30.9°F 85% 29.83 in 2.5 miles SW 5.8 mph - 0.00 in Snow Light Snow
3:59 PM 33.8°F 30.2°F 87% 29.77 in 1.0 miles SW 5.8 mph - 0.00 in   Overcast
4:05 PM 33.8°F 30.2°F 87% 29.78 in 0.5 miles SW 4.6 mph - 0.00 in Fog Fog
4:22 PM 33.8°F 30.2°F 87% 29.78 in 0.2 miles SW 4.6 mph - 0.00 in Fog Fog
4:39 PM 33.8°F 30.2°F 87% 29.78 in 1.2 miles Calm Calm - 0.00 in Snow Light Snow
4:53 PM 34.0°F 30.0°F 85% 29.83 in 1.0 miles Calm Calm - 0.00 in Snow Light Snow
5:03 PM 33.8°F 30.2°F 87% 29.77 in 1.2 miles North 3.5 mph - 0.00 in Snow Light Snow
5:23 PM 33.8°F 30.2°F 87% 29.76 in 2.0 miles North 3.5 mph - 0.00 in Snow Light Snow
5:40 PM 33.8°F 30.2°F 87% 29.75 in 2.5 miles Calm Calm - 0.00 in Snow Light Snow
5:48 PM 33.8°F 30.2°F 87% 29.75 in 3.0 miles Calm Calm - 0.00 in   Overcast
5:53 PM 34.0°F 30.9°F 89% 29.81 in 3.0 miles Calm Calm - 0.00 in   Overcast
6:03 PM 33.8°F 30.2°F 87% 29.76 in 2.5 miles Calm Calm - N/A   Overcast
6:23 PM 33.8°F 30.2°F 87% 29.75 in 1.8 miles Calm Calm - 0.00 in Snow Light Snow
6:30 PM 33.8°F 30.2°F 87% 29.75 in 1.2 miles Calm Calm - 0.00 in Snow Light Snow
6:53 PM 34.0°F 30.0°F 85% 29.79 in 1.0 miles Calm Calm - 0.00 in Snow Light Snow
7:00 PM 33.8°F 30.2°F 87% 29.75 in 1.5 miles Calm Calm - 0.00 in Snow Light Snow
7:44 PM 33.8°F 30.2°F 87% 29.73 in 2.5 miles Calm Calm - 0.00 in Snow Light Snow
7:53 PM 34.0°F 30.9°F 89% 29.78 in 2.0 miles Calm Calm - 0.00 in Snow Light Snow
8:04 PM 33.8°F 30.2°F 87% 29.73 in 1.5 miles Calm Calm - 0.00 in Snow Light Snow
8:14 PM 33.8°F 30.2°F 87% 29.73 in 0.8 miles West 3.5 mph - 0.00 in Snow Light Snow
8:28 PM 33.8°F 30.2°F 87% 29.72 in 0.2 miles Calm Calm - 0.00 in Fog , Snow Light Snow
8:53 PM 34.0°F 30.0°F 85% 29.77 in 0.2 miles Calm Calm - 0.00 in Fog , Snow Light Snow
9:35 PM 33.8°F 30.2°F 87% 29.72 in 0.5 miles Calm Calm - 0.00 in Fog , Snow Light Snow
9:53 PM 34.0°F 30.9°F 89% 29.76 in 0.8 miles Calm Calm - 0.00 in Snow Light Snow
10:02 PM 33.8°F 30.2°F 87% 29.71 in 0.8 miles Calm Calm - 0.00 in Snow Light Snow
10:11 PM 33.8°F 30.2°F 87% 29.72 in 0.8 miles Calm Calm - 0.00 in Snow Light Snow
10:26 PM 33.8°F 30.2°F 87% 29.72 in 0.5 miles WSW 3.5 mph - 0.00 in Fog , Snow Light Snow
10:48 PM 33.8°F 30.2°F 87% 29.71 in 0.8 miles Calm Calm - 0.00 in Snow Light Snow
10:53 PM 34.0°F 30.0°F 85% 29.75 in 1.0 miles NW 3.5 mph - 0.00 in Snow Light Snow
11:03 PM 33.8°F 30.2°F 87% 29.70 in 1.5 miles NNW 4.6 mph - 0.00 in Snow Light Snow
11:13 PM 33.8°F 30.2°F 87% 29.70 in 3.0 miles NNW 3.5 mph - 0.00 in   Overcast
11:53 PM 34.0°F 30.0°F 85% 29.75 in 4.0 miles Calm Calm - 0.00 in Snow Light Snow
Moon Phase
Dec. 21 Dec. 28 Jan. 04 Jan. 11 Jan. 18
Sunrise:07:45 AM (PST) Moon Rise:12:19 PM (PST)
Sunset:04:15 PM (PST) Moon Set:01:21 AM (PST)

Copyright © 2014 The Weather Underground, Inc.